Flag for U.S.A. Weather past 2 weeks in Decatur, Illinois, U.S.A.

Now
80 °F

Broken clouds.


Feels Like: 83 °F
Forecast: 66 / 84 °F
Wind: 7 mph from South

Location: Decatur Airport

Current Time: Aug 30, 2015 at 11:43:09 AM

Latest Report: Aug 30, 2015 at 10:54 AM


Visibility: 10 mi

Pressure: 30.06 "Hg

Humidity: 69%

Dew point: 69 °F

Location of DecaturLocation

Historic Weather in Decatur — Graph

°F

Decatur temperature yesterday

Maximum temperature yesterday: 82 °F (at 1:54 PM)
Minimum temperature yesterday: 65 °F (at 1:54 AM)
Average temperature yesterday: 74 °F

Past Weeks' High & Low Weather Summary

 TemperatureHumidityPressure
High90 °F (Aug 15, 3:54 PM)93% (Aug 23, 7:54 AM)30.21 "Hg (Aug 23, 7:54 AM)
Low51 °F (Aug 27, 12:54 AM)35% (Aug 20, 4:54 PM)29.67 "Hg (Aug 19, 4:54 AM)
Average71 °F69%30.02 "Hg
* Reported Aug 15 9:54 AM — Aug 30 9:54 AM, Decatur, Weather by CustomWeather, © 2015

Note: Actual official high and low records may vary slightly from our data, if they occured in-between our weather recording intervals... More about our weather records

Advertising

Decatur weather history for previous 24 hours

 ConditionsComfort  
Time TempWeatherWind HumidityBarometerVisibility
9:54 AM
Sun, Aug 30
76 °FScattered clouds.No wind77%30.06 "Hg10 mi
8:54 AM73 °FOvercast.7 mph81%30.05 "Hg10 mi
7:54 AM70 °FOvercast.3 mph87%30.04 "Hg9 mi
6:54 AM69 °FOvercast.No wind87%30.03 "Hg8 mi
5:54 AM69 °FOvercast.3 mph90%30.01 "Hg9 mi
4:54 AM69 °FOvercast.3 mph90%30.00 "Hg10 mi
3:54 AM69 °FPassing clouds.3 mph87%30.00 "Hg8 mi
2:54 AM70 °FPassing clouds.6 mph84%30.00 "Hg10 mi
1:54 AM71 °FPassing clouds.5 mph84%30.00 "Hg10 mi
12:54 AM72 °FMostly cloudy.5 mph84%30.02 "Hg10 mi
11:54 PM
Sat, Aug 29
73 °FOvercast.3 mph84%30.01 "Hg10 mi
10:54 PM74 °FOvercast.6 mph79%30.01 "Hg10 mi
9:54 PM74 °FPassing clouds.5 mph76%30.01 "Hg10 mi
8:54 PM75 °FOvercast.8 mph74%30.01 "Hg10 mi
7:54 PM76 °FPartly sunny.10 mph72%29.99 "Hg10 mi
6:54 PM78 °FScattered clouds.9 mph69%29.98 "Hg10 mi
5:54 PM79 °FScattered clouds.9 mph65%29.98 "Hg10 mi
4:54 PM80 °FScattered clouds.9 mph62%29.98 "Hg10 mi
3:54 PM81 °FScattered clouds.10 mph62%29.98 "Hg10 mi
2:54 PM81 °FPartly sunny.14 mph58%30.00 "Hg10 mi
1:54 PM82 °FSunny.13 mph58%30.01 "Hg10 mi
12:54 PM78 °FPartly sunny.7 mph66%30.02 "Hg10 mi
11:54 AM77 °FScattered clouds.7 mph69%30.03 "Hg10 mi
Weather by CustomWeather, © 2015

See weather overviewHow to use our weather pages